Voltar ao catálogo

METEOR 2-6 DEB

LostPO
NORAD 43297·DEBRIS·🇷🇺 Russia

Lançado Sep 9, 1980 de Plesetsk Cosmodrome

Loading…

Próximas Passagens (próximas 24 horas)

TLE

ObsoletoSource: Space-Track

Época: Dec 4, 2023, 09:27 UTC

1 43297U 80073R   23338.39443688  .00005722  00000-0  22917-2 0  9996
2 43297  81.1929 222.3495 0038494 102.1030 258.4468 14.27816284460155

Acompanhe METEOR 2-6 DEB em tempo real com AllMySat

Download on the App Store